Regional Weather Roundup
Issued by NWS

Home | Current Version | Previous Version | Text Only | Print | Product List | Glossary On
Versions: 1 2 3 4 5 6 7 8 9 10 11 12 13 14 15 16 17 18 19 20 21 22 23 24 25 26 27 28
000
ASUS46 KSEW 280110
RWRWA

WASHINGTON REGIONAL WEATHER ROUNDUP
NATIONAL WEATHER SERVICE SEATTLE WA
600 PM PDT FRI MAY 27 2016

NOTE:"FAIR" INDICATES FEW OR NO CLOUDS BELOW 12,000 FEET WITH NO
SIGNIFICANT WEATHER AND/OR OBSTRUCTIONS TO VISIBILITY.

WAZ505-507>509-280200-
SEATTLE, TACOMA, EVERETT, AND VICINITY

CITY           SKY/WX    TMP DP  RH WIND       PRES   REMARKS
EVERETT        PTSUNNY   56  41  57 N9        30.12F
BOEING FIELD   LGT RAIN  56  49  77 CALM      30.12R
RENTON         CLOUDY    58  45  62 NW9       30.11R
SEATAC AIRPORT PTSUNNY   58  44  60 NW7       30.12S
JBLM-MCCHORD   PTSUNNY   60  42  50 W15       30.12S
PUYALLUP       FAIR      61  43  51 W9G16     30.12S
BREMERTON      CLOUDY    59  43  55 SW14G21   30.13S
JBLM-FT LEWIS  PTSUNNY   61  42  50 SW15G23   30.12S
TACOMA NARROWS PTSUNNY   59  41  51 SW10G20   30.13S
$$

WAZ001-503-506-510-514-515-280200-
NORTH INTERIOR

CITY           SKY/WX    TMP DP  RH WIND       PRES   REMARKS
BELLINGHAM     PTSUNNY   57  44  62 S14G20    30.09F
FRIDAY HARBOR  CLOUDY    58  39  49 SW15G24   30.11S
EASTSOUND      PTSUNNY   61  37  41 W8        30.07S
PORT ANGELES   MOSUNNY   54  44  69 NW14G23   30.13S
EDIZ HOOK      MOCLDY    54  45  73 NW20      30.12S
PORT TOWNSEND  CLOUDY    55  43  62 NW9G16    30.13F
NAS WHIDBEY    CLOUDY    56  44  64 W13       30.16F
ARLINGTON      CLOUDY    57  39  51 NW10      30.14S
BURLINGTON     CLOUDY    57  39  51 SW9G16    30.12S
$$

WAZ020-022-039-040-504-511-512-280200-
SOUTHWEST INTERIOR

CITY           SKY/WX    TMP DP  RH WIND       PRES   REMARKS
SHELTON        PTSUNNY   59  40  49 SW21G29   30.10F
OLYMPIA        PTSUNNY   59  39  47 W9G18     30.14S
CHEHALIS       FAIR      59  45  58 VRB7G14   30.15F
KELSO          CLOUDY    59  43  55 NW10G18   30.20F
VANCOUVER      PTSUNNY   59  45  59 N6        30.16S
SCAPPOOSE, OR  MOSUNNY   61  43  51 NW8       30.15F
PORTLAND, OR   PTSUNNY   61  45  55 NW12      30.16S
$$

WAZ021-516-517-280200-
WASHINGTON COAST

CITY           SKY/WX    TMP DP  RH WIND       PRES   REMARKS
FORKS          LGT RAIN  50  47  89 W6        30.16F
HOQUIAM        PTSUNNY   57  45  64 W13       30.18F
ASTORIA, OR    CLOUDY    57  47  69 VRB6      30.19F
$$

WAZ019-023-024-040-518-519-280200-
CASCADE MOUNTAINS AND COLUMBIA GORGE

CITY           SKY/WX    TMP DP  RH WIND       PRES   REMARKS
STAMPEDE PASS  PTSUNNY   41  34  76 VRB3      30.08S
TROUTDALE, OR  CLOUDY    62  44  51 VRB6      30.15F
THE DALLES, OR PTSUNNY   64  39  39 W18G28    30.08S
$$

WAZ026-027-041>044-520-521-280200-
EAST SLOPES

CITY           SKY/WX    TMP DP  RH WIND       PRES   REMARKS
OMAK           PTSUNNY   65  31  28 N9        29.91F
WENATCHEE      MOSUNNY   65  27  23 W25G32    29.95F
ELLENSBURG     MOSUNNY   58  34  40 W24G36    30.01F
YAKIMA         MOSUNNY   67  33  28 W18G25    30.00S
$$

WAZ028-034-035-280200-
COLUMBIA BASIN

CITY           SKY/WX    TMP DP  RH WIND       PRES   REMARKS
EPHRATA        PTSUNNY   66  27  23 W20G25    29.94S
MOSES LAKE     PTSUNNY   66  30  26 W14       29.95F
PASCO          SUNNY     71  27  19 SW7       29.97F
HERMISTON, OR  MOSUNNY   69  34  27 W14       29.98F
$$

WAZ036>038-280200-
NORTHEAST WASHINGTON

CITY           SKY/WX    TMP DP  RH WIND       PRES   REMARKS
SPOKANE GEIGER MOSUNNY   60  26  27 SW12      29.96F
SPOKANE FELTS  MOSUNNY   61  31  32 S13       29.96F
FAIRCHILD AFB  MOSUNNY   60  27  28 SW15      29.96S
COEURDALENE,ID SUNNY     61  32  33 SW10      29.94F
DEER PARK      CLOUDY    60  28  29 S12       29.96S
$$

WAZ029>033-280200-
SOUTHEAST WASHINGTON

CITY           SKY/WX    TMP DP  RH WIND       PRES   REMARKS
PULLMAN        CLOUDY    57  31  37 W13       30.02S
LEWISTON, ID   CLOUDY    64  34  32 NW14G20   29.97F
WALLA WALLA    MOSUNNY   65  33  30 W13G21    30.00F
PENDLETON, OR  MOSUNNY   65  27  23 W16       30.00S
$$




USA.gov is the U.S. government's official web portal to all federal, state and local government web resources and services.